GW7256 Weather Reports


time (UTC)temp
C
wind
direction
speed
KPH
gust
KPH
rain 1hr
cm
rain 24hr
cm
rain mn
cm
humidity
%
barometer
mb
20260510190126 28 144 0.0 1.6 0.00 0.00 0.00 36 1013.9
20260510185622 29 200 3.2 4.8 0.00 0.00 0.00 33 1013.8
20260510185121 28 356 3.2 6.4 0.00 0.00 0.00 35 1013.9
20260510184617 28 126 3.2 3.2 0.00 0.00 0.00 36 1014.0
20260510184113 28 149 0.0 1.6 0.00 0.00 0.00 42 1014.2
20260510183608 28 179 0.0 1.6 0.00 0.00 0.00 38 1014.0
20260510183104 28 148 0.0 1.6 0.00 0.00 0.00 40 1014.3
20260510182601 29 121 0.0 4.8 0.00 0.00 0.00 41 1014.2
20260510182056 29 155 0.0 1.6 0.00 0.00 0.00 39 1014.1
20260510181554 28 127 1.6 1.6 0.00 0.00 0.00 42 1014.1
20260510181050 27 3 3.2 9.7 0.00 0.00 0.00 37 1014.0
20260510180546 27 293 3.2 3.2 0.00 0.00 0.00 38 1014.3
20260510180045 27 180 1.6 3.2 0.00 0.00 0.00 37 1014.5
20260510175544 27 142 0.0 1.6 0.00 0.00 0.00 40 1014.5
20260510175041 28 144 0.0 1.6 0.00 0.00 0.00 39 1014.4
20260510174540 28 46 3.2 3.2 0.00 0.00 0.00 35 1014.4
20260510174036 28 176 0.0 6.4 0.00 0.00 0.00 40 1014.2
20260510173531 28 140 1.6 3.2 0.00 0.00 0.00 36 1014.2
20260510173028 28 136 3.2 3.2 0.00 0.00 0.00 38 1014.6
20260510172524 28 131 1.6 1.6 0.00 0.00 0.00 41 1014.6
20260510172021 27 170 1.6 1.6 0.00 0.00 0.00 37 1014.6
20260510171517 28 91 1.6 3.2 0.00 0.00 0.00 38 1014.6
20260510171014 27 208 1.6 1.6 0.00 0.00 0.00 33 1014.5
20260510170511 27 146 0.0 1.6 0.00 0.00 0.00 39 1014.4
20260510170008 27 157 1.6 6.4 0.00 0.00 0.00 36 1014.5
20260510165503 27 133 0.0 0.0 0.00 0.00 0.00 40 1014.3
20260510165000 27 145 1.6 3.2 0.00 0.00 0.00 43 1014.4
20260510164457 27 164 0.0 1.6 0.00 0.00 0.00 44 1014.7
20260510163952 27 116 3.2 3.2 0.00 0.00 0.00 39 1014.4
20260510163448 27 123 4.8 4.8 0.00 0.00 0.00 40 1014.7
20260510162943 27 139 0.0 1.6 0.00 0.00 0.00 41 1014.7
20260510162440 27 119 1.6 3.2 0.00 0.00 0.00 39 1014.6
20260510161937 27 260 3.2 4.8 0.00 0.00 0.00 40 1014.8
20260510161432 27 224 1.6 3.2 0.00 0.00 0.00 39 1014.8
20260510160930 27 203 3.2 3.2 0.00 0.00 0.00 41 1014.8
20260510160427 27 4 4.8 4.8 0.00 0.00 0.00 42 1014.8
20260510155925 27 135 1.6 3.2 0.00 0.00 0.00 46 1014.9
20260510155423 27 187 1.6 1.6 0.00 0.00 0.00 40 1015.2
20260510154919 26 148 0.0 4.8 0.00 0.00 0.00 44 1015.0
20260510154415 26 253 3.2 4.8 0.00 0.00 0.00 42 1015.2
20260510153914 26 128 1.6 3.2 0.00 0.00 0.00 43 1015.4
20260510153411 26 107 3.2 3.2 0.00 0.00 0.00 43 1015.1
20260510152907 26 153 1.6 4.8 0.00 0.00 0.00 42 1015.2
20260510152405 26 318 4.8 4.8 0.00 0.00 0.00 43 1015.2
20260510151901 26 171 1.6 1.6 0.00 0.00 0.00 46 1015.0
20260510151359 25 127 3.2 4.8 0.00 0.00 0.00 46 1015.1
20260510150855 26 152 3.2 4.8 0.00 0.00 0.00 47 1015.1
20260510150350 25 131 0.0 1.6 0.00 0.00 0.00 51 1015.0
20260510145847 25 335 3.2 3.2 0.00 0.00 0.00 48 1014.9
20260510145343 25 59 1.6 3.2 0.00 0.00 0.00 47 1015.2
20260510144840 25 168 1.6 4.8 0.00 0.00 0.00 50 1015.0
20260510144337 25 166 1.6 4.8 0.00 0.00 0.00 47 1015.1
20260510143836 25 168 1.6 3.2 0.00 0.00 0.00 48 1015.1
20260510143333 25 160 1.6 3.2 0.00 0.00 0.00 51 1015.0
20260510142831 25 132 1.6 1.6 0.00 0.00 0.00 49 1015.2
20260510142327 25 136 0.0 3.2 0.00 0.00 0.00 53 1014.9
20260510141824 24 134 0.0 1.6 0.00 0.00 0.00 54 1015.0
20260510141321 23 279 1.6 1.6 0.00 0.00 0.00 57 1015.1
20260510140819 24 189 3.2 3.2 0.00 0.00 0.00 58 1015.0
20260510140314 23 249 1.6 3.2 0.00 0.00 0.00 59 1015.1
20260510135813 23 177 1.6 1.6 0.00 0.00 0.00 59 1015.1
20260510135309 23 217 3.2 3.2 0.00 0.00 0.00 62 1015.1
20260510134807 22 100 1.6 3.2 0.00 0.00 0.00 62 1015.0
20260510134304 22 297 3.2 3.2 0.00 0.00 0.00 64 1015.2
20260510133759 22 263 1.6 4.8 0.00 0.00 0.00 64 1015.2
20260510133256 22 114 0.0 3.2 0.00 0.00 0.00 65 1015.0
20260510132751 22 96 1.6 3.2 0.00 0.00 0.00 69 1014.8
20260510132250 22 179 3.2 1.6 0.00 0.00 0.00 70 1015.0
20260510131746 22 134 0.0 1.6 0.00 0.00 0.00 69 1014.8
20260510131245 21 110 1.6 3.2 0.00 0.00 0.00 71 1014.7
20260510130740 21 145 0.0 1.6 0.00 0.00 0.00 74 1014.7
20260510130238 21 134 0.0 0.0 0.00 0.00 0.00 74 1014.5
20260510125734 21 171 0.0 1.6 0.00 0.00 0.00 73 1014.6
20260510125230 20 169 0.0 1.6 0.00 0.00 0.00 77 1014.5
20260510124727 20 174 0.0 1.6 0.00 0.00 0.00 78 1014.5
20260510124225 20 174 1.6 1.6 0.00 0.00 0.00 77 1014.6
20260510123719 20 143 1.6 1.6 0.00 0.00 0.00 80 1014.7
20260510123215 20 142 0.0 0.0 0.00 0.00 0.00 81 1014.4
20260510122712 20 142 0.0 1.6 0.00 0.00 0.00 83 1014.4
20260510122209 20 141 0.0 1.6 0.00 0.00 0.00 82 1014.4
20260510121705 19 143 0.0 1.6 0.00 0.00 0.00 84 1014.4
20260510121202 18 143 0.0 0.0 0.00 0.00 0.00 87 1014.4
20260510120654 18 140 1.6 1.6 0.00 0.00 0.00 87 1014.3
20260510120150 17 141 0.0 1.6 0.00 0.00 0.00 90 1014.3
20260510115646 17 140 0.0 0.0 0.00 0.00 0.00 91 1014.3
20260510115144 16 140 0.0 0.0 0.00 0.00 0.00 94 1014.4
20260510114639 16 140 0.0 0.0 0.00 0.00 0.00 96 1014.2
20260510114136 15 140 0.0 0.0 0.00 0.00 0.00 97 1014.2
20260510113631 15 140 0.0 0.0 0.00 0.00 0.00 97 1014.0
20260510113128 15 140 0.0 0.0 0.00 0.00 0.00 97 1013.9
20260510112625 15 139 0.0 0.0 0.00 0.00 0.00 97 1014.0
20260510112122 15 139 0.0 0.0 0.00 0.00 0.00 97 1013.7
20260510111618 15 139 0.0 0.0 0.00 0.00 0.00 97 1013.6
20260510111114 15 139 0.0 0.0 0.00 0.00 0.00 97 1013.7
20260510110610 15 139 0.0 0.0 0.00 0.00 0.00 97 1013.7
20260510110107 14 139 0.0 0.0 0.00 0.00 0.00 97 1013.5
20260510105603 14 139 0.0 0.0 0.00 0.00 0.00 97 1013.5
20260510105057 14 139 0.0 0.0 0.00 0.00 0.00 97 1013.3
20260510104554 14 139 0.0 0.0 0.00 0.00 0.00 97 1013.5
20260510104050 14 139 0.0 0.0 0.00 0.00 0.00 97 1013.4
20260510103548 14 139 0.0 0.0 0.00 0.00 0.00 97 1013.0
20260510103044 14 139 0.0 0.0 0.00 0.00 0.00 97 1013.3
20260510102539 14 139 0.0 0.0 0.00 0.00 0.00 97 1013.1
20260510102035 14 139 0.0 0.0 0.00 0.00 0.00 97 1013.0
20260510101533 14 139 0.0 0.0 0.00 0.00 0.00 97 1012.8
20260510101032 14 139 0.0 0.0 0.00 0.00 0.00 97 1012.8
20260510100528 14 139 0.0 0.0 0.00 0.00 0.00 97 1013.0
20260510100025 14 139 0.0 0.0 0.00 0.00 0.00 97 1012.5
20260510095521 14 139 0.0 0.0 0.00 0.00 0.00 97 1012.6
20260510095019 14 139 0.0 0.0 0.00 0.00 0.00 97 1012.7
20260510094515 14 139 0.0 0.0 0.00 0.00 0.00 97 1012.6
20260510094010 14 139 0.0 0.0 0.00 0.00 0.00 97 1012.3
20260510093507 14 139 0.0 0.0 0.00 0.00 0.00 97 1012.3
20260510093003 14 139 0.0 0.0 0.00 0.00 0.00 97 1012.0
20260510092500 14 139 0.0 0.0 0.00 0.00 0.00 97 1012.1
20260510092000 14 139 0.0 0.0 0.00 0.00 0.00 97 1012.2
20260510091457 14 139 0.0 0.0 0.00 0.00 0.00 97 1012.0
20260510090953 14 139 0.0 0.0 0.00 0.00 0.00 97 1011.9
20260510090450 14 139 0.0 0.0 0.00 0.00 0.00 97 1012.0
20260510085945 14 139 0.0 0.0 0.00 0.00 0.00 97 1012.0
20260510085441 14 139 0.0 0.0 0.00 0.00 0.00 97 1012.0
20260510084936 14 139 0.0 0.0 0.00 0.00 0.00 97 1011.9
20260510084434 14 139 0.0 0.0 0.00 0.00 0.00 97 1011.9
20260510083930 14 139 0.0 0.0 0.00 0.00 0.00 97 1012.0
20260510083427 14 139 0.0 0.0 0.00 0.00 0.00 97 1011.8
20260510082922 14 139 0.0 0.0 0.00 0.00 0.00 97 1011.8
20260510082421 14 139 0.0 0.0 0.00 0.00 0.00 97 1011.8
20260510081919 14 139 0.0 0.0 0.00 0.00 0.00 97 1011.8
20260510081415 14 139 0.0 0.0 0.00 0.00 0.00 97 1011.7
20260510080912 14 139 0.0 0.0 0.00 0.00 0.00 97 1011.8
20260510080411 14 139 0.0 0.0 0.00 0.00 0.00 97 1012.0
20260510075908 14 139 0.0 0.0 0.00 0.00 0.00 97 1011.7
20260510075406 14 139 0.0 0.0 0.00 0.00 0.00 97 1011.6
20260510074902 14 139 0.0 0.0 0.00 0.00 0.00 97 1011.8
20260510074359 14 139 0.0 0.0 0.00 0.00 0.00 96 1011.8
20260510073856 15 139 0.0 0.0 0.00 0.00 0.00 96 1011.6
20260510073351 15 139 0.0 0.0 0.00 0.00 0.00 96 1011.7
20260510072847 15 139 0.0 0.0 0.00 0.00 0.00 97 1011.6
20260510072345 14 139 0.0 0.0 0.00 0.00 0.00 96 1011.3
20260510071840 14 139 0.0 0.0 0.00 0.00 0.00 96 1011.5
20260510071337 14 139 0.0 0.0 0.00 0.00 0.00 96 1011.5
20260510070836 14 139 0.0 0.0 0.00 0.00 0.00 96 1011.3
20260510070332 14 139 0.0 0.0 0.00 0.00 0.00 96 1011.9
20260510065827 14 139 0.0 0.0 0.00 0.00 0.00 96 1011.6
20260510065324 15 139 0.0 0.0 0.00 0.00 0.00 96 1011.5
20260510064821 15 139 0.0 0.0 0.00 0.00 0.00 96 1011.7
20260510064319 15 139 0.0 0.0 0.00 0.00 0.00 96 1011.5
20260510063814 15 139 0.0 0.0 0.00 0.00 0.00 96 1011.6
20260510063311 15 139 0.0 0.0 0.00 0.00 0.00 96 1011.8
20260510062808 15 139 0.0 0.0 0.00 0.00 0.00 96 1011.5
20260510062306 15 139 0.0 0.0 0.00 0.00 0.00 96 1011.3
20260510061759 15 139 0.0 0.0 0.00 0.00 0.00 96 1011.3
20260510061256 15 139 0.0 0.0 0.00 0.00 0.00 96 1011.3
20260510060752 15 139 0.0 0.0 0.00 0.00 0.00 96 1011.8
20260510060249 15 139 0.0 0.0 0.00 0.00 0.00 96 1011.6
20260510055746 15 139 0.0 0.0 0.00 0.00 0.00 96 1011.6
20260510055244 15 139 0.0 0.0 0.00 0.00 0.00 96 1011.6
20260510054744 15 139 0.0 0.0 0.00 0.00 0.00 96 1011.7
20260510054240 15 139 0.0 0.0 0.00 0.00 0.00 96 1011.6
20260510053739 15 139 0.0 0.0 0.00 0.00 0.00 96 1012.0
20260510053236 15 139 0.0 0.0 0.00 0.00 0.00 96 1011.8
20260510052732 15 139 0.0 0.0 0.00 0.00 0.00 96 1011.8
20260510052228 15 139 0.0 0.0 0.00 0.00 0.00 96 1012.0
20260510051724 15 139 0.0 0.0 0.00 0.00 0.00 96 1012.3
20260510051221 15 139 0.0 0.0 0.00 0.00 0.00 96 1012.0
20260510050718 15 139 0.0 0.0 0.00 0.00 0.00 96 1012.1
20260510050215 15 139 0.0 0.0 0.00 0.00 0.00 96 1012.1
20260510045712 15 139 0.0 0.0 0.00 0.00 0.00 96 1012.2
20260510045208 15 139 0.0 0.0 0.00 0.00 0.00 96 1012.3
20260510044704 15 139 0.0 0.0 0.00 0.00 0.00 96 1012.0
20260510044203 15 139 0.0 0.0 0.00 0.00 0.00 96 1012.2
20260510043658 15 139 0.0 0.0 0.00 0.00 0.00 96 1012.1
20260510043155 15 139 0.0 0.0 0.00 0.00 0.00 96 1012.2
20260510042652 15 139 0.0 0.0 0.00 0.00 0.00 95 1012.1
20260510042148 15 139 0.0 0.0 0.00 0.00 0.00 95 1012.0
20260510041645 15 139 0.0 0.0 0.00 0.00 0.00 95 1011.0
20260510041142 15 139 0.0 0.0 0.00 0.00 0.00 95 1010.8
20260510040639 15 139 0.0 0.0 0.00 0.00 0.00 95 1010.8
20260510040136 15 139 0.0 0.0 0.00 0.00 0.00 95 1010.9
20260510035632 15 139 0.0 0.0 0.00 0.00 0.00 95 1010.7
20260510035127 15 139 0.0 0.0 0.00 0.00 0.00 95 1010.8
20260510034624 15 139 0.0 0.0 0.00 0.00 0.00 95 1010.9
20260510034121 15 139 0.0 0.0 0.00 0.00 0.00 95 1010.7
20260510033617 15 139 0.0 0.0 0.00 0.00 0.00 95 1010.8
20260510033115 15 139 0.0 0.0 0.00 0.00 0.00 95 1010.7
20260510032611 15 139 0.0 0.0 0.00 0.00 0.00 95 1010.7
20260510032107 15 139 0.0 0.0 0.00 0.00 0.00 95 1010.6
20260510031602 15 139 0.0 0.0 0.00 0.00 0.00 95 1010.6
20260510031058 15 139 0.0 0.0 0.00 0.00 0.00 95 1010.5
20260510030553 15 139 0.0 0.0 0.00 0.00 0.00 94 1010.6
20260510030051 15 139 0.0 0.0 0.00 0.00 0.00 94 1010.5
20260510025548 16 139 0.0 0.0 0.00 0.00 0.00 94 1010.3
20260510025046 16 139 0.0 0.0 0.00 0.00 0.00 94 1010.4
20260510024542 16 139 0.0 0.0 0.00 0.00 0.00 94 1010.3
20260510024038 16 139 0.0 0.0 0.00 0.00 0.00 94 1010.4
20260510023535 16 139 0.0 0.0 0.00 0.00 0.00 94 1010.6
20260510023033 16 139 0.0 0.0 0.00 0.00 0.00 94 1010.3
20260510022532 16 139 0.0 0.0 0.00 0.00 0.00 94 1010.6
20260510022032 16 139 0.0 0.0 0.00 0.00 0.00 94 1010.2
20260510021528 16 139 0.0 0.0 0.00 0.00 0.00 94 1010.2
20260510021026 16 139 0.0 0.0 0.00 0.00 0.00 94 1010.3
20260510020520 16 139 0.0 0.0 0.00 0.00 0.00 94 1010.4
20260510020016 16 139 0.0 0.0 0.00 0.00 0.00 93 1010.5
20260510015512 16 139 0.0 0.0 0.00 0.00 0.00 93 1010.5
20260510015008 16 139 0.0 0.0 0.00 0.00 0.00 92 1010.2
20260510014505 16 139 0.0 0.0 0.00 0.00 0.00 92 1010.1
20260510014002 16 139 0.0 0.0 0.00 0.00 0.00 92 1009.9
20260510013456 16 139 0.0 0.0 0.00 0.00 0.00 91 1009.9
20260510012952 16 139 0.0 0.0 0.00 0.00 0.00 91 1009.9
20260510012447 17 139 0.0 0.0 0.00 0.00 0.00 91 1009.8
20260510011942 17 139 0.0 0.0 0.00 0.00 0.00 90 1009.8
20260510011437 17 139 0.0 0.0 0.00 0.00 0.00 89 1009.5
20260510010933 17 139 0.0 0.0 0.00 0.00 0.00 88 1009.7
20260510010431 17 139 0.0 0.0 0.00 0.00 0.00 88 1009.7
20260510005928 17 139 0.0 0.0 0.00 0.00 0.00 88 1009.9
20260510005424 17 139 0.0 0.0 0.00 0.00 0.00 88 1009.7
20260510004921 17 139 0.0 0.0 0.00 0.00 0.00 88 1009.6
20260510004419 17 139 0.0 0.0 0.00 0.00 0.00 86 1009.3
20260510003916 18 139 0.0 0.0 0.00 0.00 0.00 86 1009.5
20260510003413 18 139 0.0 0.0 0.00 0.00 0.00 85 1009.4
20260510002912 18 139 0.0 0.0 0.00 0.00 0.00 84 1009.3
20260510002410 18 139 0.0 0.0 0.00 0.00 0.00 84 1009.7
20260510001906 18 139 0.0 0.0 0.00 0.00 0.00 84 1009.6
20260510001404 19 139 0.0 0.0 0.00 0.00 0.00 81 1009.4
20260510000900 19 139 0.0 0.0 0.00 0.00 0.00 80 1009.5
20260510000357 19 139 0.0 0.0 0.00 0.00 0.00 79 1009.3
20260509235853 20 139 0.0 0.0 0.00 0.00 0.00 78 1009.4
20260509235350 20 139 0.0 0.0 0.00 0.00 0.00 77 1009.3
20260509234846 20 139 0.0 0.0 0.00 0.00 0.00 76 1009.2
20260509234343 20 139 0.0 0.0 0.00 0.00 0.00 75 1009.2
20260509233842 20 139 0.0 0.0 0.00 0.00 0.00 74 1009.0
20260509233339 21 140 0.0 0.0 0.00 0.00 0.00 73 1008.9
20260509232834 21 140 0.0 0.0 0.00 0.00 0.00 72 1008.9
20260509232333 21 140 0.0 0.0 0.00 0.00 0.00 72 1008.8
20260509231828 21 127 0.0 0.0 0.00 0.00 0.00 70 1008.9
20260509231325 21 125 0.0 1.6 0.00 0.00 0.00 71 1008.8
20260509230823 21 132 0.0 0.0 0.00 0.00 0.00 71 1008.7
20260509230320 21 132 0.0 0.0 0.00 0.00 0.00 69 1008.7
20260509225815 22 132 0.0 0.0 0.00 0.00 0.00 69 1008.5
20260509225312 22 132 1.6 4.8 0.00 0.00 0.00 66 1008.3
20260509224808 22 130 1.6 6.4 0.00 0.00 0.00 67 1008.7
20260509224304 22 142 3.2 3.2 0.00 0.00 0.00 67 1008.7
20260509223801 22 136 3.2 3.2 0.00 0.00 0.00 67 1008.7
20260509223258 22 138 1.6 4.8 0.00 0.00 0.00 67 1008.7
20260509222755 22 136 0.0 1.6 0.00 0.00 0.00 67 1008.9
20260509222250 22 154 0.0 0.0 0.00 0.00 0.00 66 1008.8
20260509221746 22 155 1.6 1.6 0.00 0.00 0.00 66 1009.0
20260509221243 22 132 1.6 1.6 0.00 0.00 0.00 65 1008.9
20260509220739 22 148 0.0 1.6 0.00 0.00 0.00 66 1008.7
20260509220235 22 142 0.0 0.0 0.00 0.00 0.00 66 1008.5
20260509215731 22 135 0.0 0.0 0.00 0.00 0.00 66 1008.6
20260509215227 22 127 0.0 0.0 0.00 0.00 0.00 67 1008.6
20260509214725 22 126 0.0 0.0 0.00 0.00 0.00 66 1008.5
20260509214222 22 134 0.0 0.0 0.00 0.00 0.00 66 1008.6
20260509213719 22 134 0.0 0.0 0.00 0.00 0.00 65 1008.5
20260509213214 22 165 0.0 3.2 0.00 0.00 0.00 66 1008.5
20260509212712 22 130 1.6 3.2 0.00 0.00 0.00 65 1008.6
20260509212209 22 139 0.0 3.2 0.00 0.00 0.00 65 1008.5
20260509211705 22 137 0.0 0.0 0.00 0.00 0.00 63 1008.5
20260509211201 22 146 0.0 0.0 0.00 0.00 0.00 66 1008.8
20260509210658 23 138 0.0 1.6 0.00 0.00 0.00 63 1008.4
20260509210155 22 123 1.6 3.2 0.00 0.00 0.00 63 1008.6
20260509205650 22 83 1.6 3.2 0.00 0.00 0.00 65 1008.5
20260509205150 22 145 0.0 1.6 0.00 0.00 0.00 64 1008.4
20260509204646 22 134 0.0 1.6 0.00 0.00 0.00 63 1008.5
20260509204142 22 132 0.0 0.0 0.00 0.00 0.00 63 1008.5
20260509203639 22 132 0.0 1.6 0.00 0.00 0.00 62 1008.5
20260509203137 21 134 0.0 0.0 0.00 0.00 0.00 63 1008.5
20260509202637 21 134 0.0 0.0 0.00 0.00 0.00 65 1008.6
20260509202132 21 147 0.0 1.6 0.00 0.00 0.00 66 1008.6
20260509201627 21 155 0.0 0.0 0.00 0.00 0.00 66 1008.6
20260509201126 21 145 0.0 0.0 0.00 0.00 0.00 65 1008.7
20260509200621 21 147 0.0 0.0 0.00 0.00 0.00 64 1008.7
20260509200117 21 121 0.0 1.6 0.00 0.00 0.00 63 1009.1
20260509195613 21 132 0.0 0.0 0.00 0.00 0.00 64 1009.0
20260509195107 21 132 0.0 0.0 0.00 0.00 0.00 62 1008.8
20260509194607 22 134 1.6 1.6 0.00 0.00 0.00 62 1009.0
20260509194105 21 149 0.0 3.2 0.00 0.00 0.00 62 1009.3
20260509193601 21 141 0.0 3.2 0.00 0.00 0.00 61 1009.1
20260509193056 22 141 1.6 4.8 0.00 0.00 0.00 63 1009.2
20260509192553 22 143 0.0 1.6 0.00 0.00 0.00 63 1009.2
20260509192048 22 160 0.0 4.8 0.00 0.00 0.00 60 1009.4
20260509191548 22 156 0.0 4.8 0.00 0.00 0.00 61 1009.3
20260509191045 22 136 1.6 4.8 0.00 0.00 0.00 59 1009.3
20260509190542 22 114 1.6 1.6 0.00 0.00 0.00 60 1009.3